Regional Weather Roundup
Issued by NWS Wakefield, VA

Home | Current Version | Previous Version | Graphics & Text | Print | Product List | Glossary On
Versions: 1 2 3 4 5 6 7 8 9 10 11 12 13 14 15 16 17 18 19 20 21 22 23 24 25 26 27 28 29 30 31 32 33 34 35 36 37 38 39 40 41 42 43 44 45 46 47 48 49 50
952
ASUS41 KAKQ 221315
RWRAKQ

REGIONAL WEATHER ROUNDUP
NATIONAL WEATHER SERVICE WAKEFIELD VA
800 AM EST SUN JAN 22 2017

Note: "fair" indicates few or no clouds below 12,000 feet with no
significant weather and/or obstructions to visibility. * = Denotes
station may not report precipitation (e.g., rain,snow,etc.),
thunder or fog.

VAZ042-051-052>054-056-221400-
NORTHERN VIRGINIA

CITY           SKY/WX    TMP DP  RH WIND       PRES   REMARKS
WASH NATIONAL  DRIZZLE   48  47  96 N8        29.71R FOG
DULLES         FOG       46  45  96 N7        29.70F VSB 1/8
FORT BELVOIR   NOT AVBL
QUANTICO       FOG       48  48 100 N6        29.72R VSB 1
FREDERICKSBRG* FOG       48  48 100 N3        29.70R VSB 1
STAFFORD*      FOG       47  47 100 NW5       29.74R VSB 3/4
WARRENTON      CLOUDY    49  46  91 NW5       29.71R FOG
CULPEPER*      CLOUDY    48  48 100 NW3       29.72R FOG
MANASSAS*      FOG      N/A N/A N/A CALM      29.71R VSB 1
LEESBURG*      CLOUDY    46  46 100 N6        29.72R FOG
WINCHESTER     CLOUDY    43  43 100 CALM      29.71R FOG
FRONT ROYAL*   CLOUDY    45  45 100 CALM      29.70R VSB 1
LURAY*         CLOUDY    45  45 100 NE5       29.70R FOG
$$

VAZ048-049-060>072-079>083-221400-
CENTRAL AND SOUTH CENTRAL VIRGINIA

CITY           SKY/WX    TMP DP  RH WIND       PRES   REMARKS
RICHMOND       FOG       48  48 100 NW6       29.68R VSB 1/2
CHESTERFIELD*  CLOUDY    50  36  57 NW3       29.70R VSB 1/2
PETERSBURG*    FOG       48  48 100 CALM      29.70R VSB 3/4
HANOVER        FOG       48  46  93 NW3       29.70R VSB 1/4
TAPPAHANNOCK*  FOG       48  48 100 N6        29.67S VSB 1/2
QUINTON*       CLOUDY    47  47 100 W9        29.66R FOG
CHARLOTTSVILLE CLOUDY    49  48  97 CALM      29.71R FOG
GORDONSVILLE*  CLOUDY    47  47 100 MISG      29.70S FOG
ORANGE*          N/A     48  48 100 CALM      29.72R FOG
LOUISA*        FOG       52  52 100 N7        29.68R VSB 1/2
BUMPASS*       CLOUDY    48  48 100 N3        29.69R
FARMVILLE*     CLOUDY    51  51 100 N3        29.69R FOG
CREWE*         CLOUDY    50  50 100 NW3       29.69R VSB 1/4
FORT PICKETT*  CLOUDY    50  46  88 NW3       29.69R VSB<1/4
CHASE CITY*    CLOUDY    50  48  94 CALM      29.69S
CLARKSVILLE*   CLOUDY    50  50 100 CALM      29.68S
SOUTH HILL*    CLOUDY    50  50 100 N5        29.73F
LAWRENCEVILLE* CLOUDY    50  49  97 NW5       29.67F VSB 1
EMPORIA*       CLOUDY    50  50 100 NW3       29.69S FOG
$$

VAZ088>098-221400-
SOUTHEAST VIRGINIA

CITY           SKY/WX    TMP DP  RH WIND       PRES   REMARKS
NORFOLK        CLOUDY    50  50 100 CALM      29.64R FOG
VIRGINIA BEACH DRZL/FOG  49  47  93 NW5       29.65R VSB 1/2
NORFOLK NAVAL  FOG       51  50  96 N3        29.66R VSB 1
WEST POINT*    CLOUDY    48  48  99 NW3       29.67R VSB 1/2
SALUDA*        CLOUDY    47  47 100 NW3       29.65R VSB 1/2
NEWPORT NEWS   CLOUDY    50  49  96 W6        29.66R FOG
LANGLEY AFB    NOT AVBL
FORT EUSTIS    FOG       49  48  94 W6        29.64R VSB 1/2
WILLIAMSBURG*  CLOUDY    50  50 100 CALM      29.67R VSB 1/2
HR EXEC AP*    CLOUDY    52  48  87 W3        29.64R VSB 1/4
FRANKLIN*      FOG       50  49  98 W3        29.68R VSB 1/2
US460-WAKEFLD  FOG       50  50 100 W3        29.67R VSB 1/2
$$

VAZ020-022-025-037-045-221400-
WEST CENTRAL AND SOUTHWEST VIRGINIA

CITY           SKY/WX    TMP DP  RH WIND       PRES   REMARKS
STAUNTON*      FOG       45  45 100 CALM      29.72R VSB 1/2
WAYNESBORO*    CLOUDY    45  44  97 CALM      29.70R VSB<1/4
HOT SPRINGS VA FOG       46  46 100 SE5       29.68R VSB<1/4
LYNCHBURG      FOG       49  48  97 N3        29.72R VSB 1
DANVILLE       CLOUDY    51  51 100 CALM      29.70R
SOUTH BOSTON*  CLOUDY    51  49  95 CALM      29.69S
MARTINSVILLE   CLOUDY    49  49  99 CALM      29.71S FOG
ROANOKE        CLOUDY    51  50  96 CALM      29.70S
BLACKSBURG     CLOUDY    49  49 100 CALM      29.71R FOG
DUBLIN*        FOG       49  49 100 NE3       29.68S VSB 1/2
MARION*        CLOUDY    50  49  96 NE5       29.69R FOG
HILLSVILLE*    CLOUDY    49  49 100 CALM      29.67R FOG
RICHLANDS*     PTSUNNY   50  48  93 SE13G20   29.62R
WISE*          CLOUDY    50  50 100 SE7       29.57F
ABINGDON*      CLOUDY    52  52 100 E13       29.60F
$$

MDZ021>025-VAZ099-100-221400-
SOUTHERN MARYLAND AND THE DELMARVA PENINSULA

CITY           SKY/WX    TMP DP  RH WIND       PRES   REMARKS
PATUXENT RIVER FOG       45  45 100 NW10      29.67R VSB 1/2
BAY BRIDGE APT FOG       41  41 100 N7        29.69S VSB 3/4
LEONARDTOWN    CLOUDY    45  45 100 N5        29.69R VSB 1
DOVER          NOT AVBL
GEORGETOWN     CLOUDY    48  47  96 NE6       29.66R
EASTON         CLOUDY    46  45  93 NE8       29.70R FOG
CAMBRIDGE      CLOUDY    46  45  93 N5        29.66S
SALISBURY      CLOUDY    49  49 100 E9        29.64S FOG
OCEAN CITY     LGT RAIN  47  47 100 NE10      29.65R FOG
WALLOPS ISLAND LGT RAIN  51  51 100 NE18      29.63S
ACCOMACK*      DRIZZLE   51  50  97 N5        29.63S
$$

NCZ012>017-030>032-221400-
NORTH CENTRAL AND EASTERN NORTH CAROLINA

CITY           SKY/WX    TMP DP  RH WIND       PRES   REMARKS
ROANOKE RAPIDS CLOUDY    50  50 100 CALM      29.67F FOG
RALEIGH        CLOUDY    53  52  96 W3        29.69F
ELIZABETH CITY CLOUDY    53  53 100 NW7       29.65R FOG
AHOSKIE*       FOG       50  50  99 CALM      29.66F VSB 3/4
EDENTON*       CLOUDY    55  55 100 CALM      29.66R FOG
CURRITUCK*     FOG       53  53 100 CALM      29.65R VSB 3/4
KILL DEVIL HLS NOT AVBL
MANTEO         CLOUDY    57  57 100 W7        29.64S
CAPE HATTERAS  MOCLDY    60  56  86 W9        29.65F
TARBORO*       NOT AVBL
GOLDSBORO      CLOUDY    60  60 100 W8        29.66S FOG
WASHINGTON     CLOUDY    59  59  99 SW6         N/A  FOG
GREENVILLE     LGT RAIN  57  57 100 NW3       29.71R
NEW BERN       CLOUDY    60  57  89 W8        29.66F
WILMINGTON     RAIN      59  58  96 W13       29.72R FOG
$$

VAZ048-221400-
ELSEWHERE

CITY           SKY/WX    TMP DP  RH WIND       PRES   REMARKS
HARRISBURG PA  FOG       42  42 100 CALM      29.72R VSB 1/2
BALTIMORE      FOG       45  45 100 N6        29.69S VSB 3/4
ANNAPOLIS      CLOUDY    46  44  93 NW5       29.69R FOG
ANDREWS AFB    NOT AVBL
PHILADELPHIA   DRIZZLE   46  45  96 N9        29.71R FOG
HENDERSON NC   FOG       48  48  98 CALM      29.69R VSB 1/2
GREENSBORO     FOG       51  51 100 CALM      29.67F VSB 1/4
ROCKY MOUNT    CLOUDY    53  53 100 CALM      29.68S FOG
$$

VAZ100-221400-
MARINE

STATION/POSITION TIME  TEMP    WIND        PRES    WAVE   SWELL
                       AIR SEA DIR/SP/G            HT/PER HT/PER
                 (UTC) (F)     (DEG/KT/KT) (MB)    (FT/S) (FT/S)
CAPE MAY NJ      1248   47 42   60/  4/ 10 1004.0R
LEWES DE         1242   45 42   90/  7/  8 1003.7R
OCEAN-CITY-INLET 1242   46 42   70/  5/  9 1004.2R
WACHAPREAGUE VA  1248   52 49   10/  9/ 16 1003.0R
THOMAS POINT MD  1200   43 40  360/ 10/ 11   N/A
GOOSES REEF MD   1300   42      10/ 14/ 14 1005.5    1/ 2
COVE POINT MD    1248   41     350/ 16/ 18 1005.1R
SOLOMONS ISLAND  1242   45 42  340/  7/  9   N/A
BISHOPS HEAD MD  1248   47 45  360/  4/  6 1004.2R
PINEY POINT MD   1248          360/ 11/ 11   N/A
POTOMAC MD       1300   46 42  360/  8/  8 1003.1    0
CAMBRIDGE MD     1248   45 40   20/  7/  8 1003.9R
LEWISETTA VA     1248   47 44  360/  7/ 10 1003.7S
RAPPAHANNOCK LGT 1248          350/ 12/ 13 1003.8F
STINGRAY PT      1300   44     360/  6/  8 1004.0    1/ 3
YORK RVR RNG VA  1248   48     310/  7/  8 1002.9R
YORKTOWN VA      1248   48 44  290/  6/  8 1003.4R
JAMESTOWN VA     1300   47 47  280/  6/  8   N/A     0
DOMINION TERM VA 1248   49     340/  6/  8 1003.7R
CHES BAY BRIDGE  1248   45 45  310/  5/  6 1003.7R
CAPE HENRY VA    1248   45     280/  7/  9   N/A
WILLOUBY STN VA  1248   50     290/  4/  5 1004.6R
S CRANEY ISL VA  1248   50     300/  3/  6 1003.5R
CAPE HENRY BUOY  1242      49                N/A     3/13   2/13
OFFSHORE WE BUOY 1251      49                N/A     4/13   2/13
64NM E OF VA BCH 1150   56 58  270/ 12/ 12 1002.0    6/ 7   5/ 7
DUCK PIER NC     1248   55 45  290/  8/ 10 1003.0R
44100 DUCK FRF   1235      48                N/A     4/ 6   2/11
44056 DUCK FRF   1300      47                N/A     3/ 6   2/13
OREGON INLET NC  1242   52 51  200/  7/ 11 1003.4R
HATTERAS NC      1248   59 54  240/ 10/ 14 1003.7F
DIAMOND SHLS NC  1150   66 73  240/ 23/ 29 1003.8    6/ 5   3/13
CAPE LOOKOUT NC  1200   59     250/ 11/ 13 1004.2F
$$




USA.gov is the U.S. government's official web portal to all federal, state and local government web resources and services.